Tracking 19846 objects as of 20-Sep-2019
HD Live streaming from Space Station
objects crossing your sky now

OICETS

Track OICETS now!
10-day predictions
OICETS is classified as:


NORAD ID: 28809
Int'l Code: 2005-031A
Perigee: 563.0 km
Apogee: 584.2 km
Inclination: 97.9 °
Period: 96.0 minutes
Semi major axis: 6944 km
RCS: 1.711 m2 (large)
Launch date: August 23, 2005
Source: Japan (JPN)
Launch site: TYURATAM MISSILE AND SPACE COMPLEX (TTMTR)

Study inter-satellite communications.
aabbcc
Your satellite tracking list
Your tracking list is empty




NASA's NSSDC Master Catalog

Two Line Element Set (TLE):
1 28809U 05031A   19262.36067438  .00000732  00000-0  63567-4 0  9996
2 28809  97.9437   1.9311 0015209  90.4639 269.8326 15.00143420767681
Source of the keplerian elements: AFSPC